Back to catalog

STARLINK-11083

AliveCommunicationsVLEO
NORAD 59424·PAYLOAD·🇺🇸 United States

Launched Apr 7, 2024 from Vandenberg Space Force Base

Loading…

Next Passes (next 24 hours)

TLE

FreshSource: CelesTrak SupGP

Epoch: Sep 14, 2026, 13:41 UTC

1 59424C 24065D   26257.57062500 -.00002582  00000+0 -21278-4 0  2577
2 59424  53.1569 242.8472 0001211  90.4740  64.0728 15.69703702    11

Track STARLINK-11083 in real time with AllMySat

Download on the App Store